| time (UTC) | temp F | wind direction | speed MPH | gust MPH | rain 1hr in | rain 24hr in | rain mn in | humidity % | barometer mb |
| 20260505182402 | 82 | 219 | 3.0 | 11.0 | 0.00 | 0.00 | 0.00 | 53 | 1014.4 |
| 20260505181631 | 82 | 284 | 3.0 | 9.0 | 0.00 | 0.00 | 0.00 | 50 | 1014.6 |
| 20260505181131 | 82 | 225 | 2.0 | 7.0 | 0.00 | 0.00 | 0.00 | 55 | 1014.6 |
| 20260505180632 | 82 | 223 | 2.0 | 5.0 | 0.00 | 0.00 | 0.00 | 54 | 1014.6 |
| 20260505180131 | 82 | 127 | 3.0 | 8.0 | 0.00 | 0.00 | 0.00 | 54 | 1014.6 |
| 20260505175632 | 82 | 212 | 4.0 | 8.0 | 0.00 | 0.00 | 0.00 | 54 | 1014.7 |
| 20260505175131 | 82 | 198 | 3.0 | 8.0 | 0.00 | 0.00 | 0.00 | 53 | 1014.7 |
| 20260505174903 | 81 | 240 | 1.0 | 8.0 | 0.00 | 0.00 | 0.00 | 56 | 1014.8 |
| 20260505174130 | 82 | 205 | 2.0 | 7.0 | 0.00 | 0.00 | 0.00 | 54 | 1014.8 |
| 20260505173901 | 81 | 349 | 3.0 | 7.0 | 0.00 | 0.00 | 0.00 | 56 | 1014.7 |
| 20260505173130 | 82 | 211 | 2.0 | 7.0 | 0.00 | 0.00 | 0.00 | 53 | 1014.8 |
| 20260505172629 | 82 | 191 | 2.0 | 7.0 | 0.00 | 0.00 | 0.00 | 56 | 1014.7 |
| 20260505172130 | 82 | 98 | 2.0 | 7.0 | 0.00 | 0.00 | 0.00 | 55 | 1014.8 |
| 20260505171629 | 82 | 285 | 2.0 | 7.0 | 0.00 | 0.00 | 0.00 | 54 | 1014.8 |
| 20260505171130 | 81 | 205 | 2.0 | 7.0 | 0.00 | 0.00 | 0.00 | 55 | 1014.8 |
| 20260505170901 | 81 | 131 | 3.0 | 8.0 | 0.00 | 0.00 | 0.00 | 54 | 1014.9 |
| 20260505170130 | 81 | 203 | 3.0 | 8.0 | 0.00 | 0.00 | 0.00 | 54 | 1014.8 |
| 20260505165630 | 81 | 257 | 2.0 | 8.0 | 0.00 | 0.00 | 0.00 | 55 | 1014.7 |
| 20260505165134 | 81 | 204 | 2.0 | 9.0 | 0.00 | 0.00 | 0.00 | 55 | 1014.9 |
| 20260505165130 | 80 | 146 | 3.0 | 9.0 | 0.00 | 0.00 | 0.00 | 55 | 1014.8 |
| 20260505164130 | 80 | 223 | 2.0 | 6.0 | 0.00 | 0.00 | 0.00 | 56 | 1014.8 |
| 20260505163630 | 80 | 251 | 2.0 | 6.0 | 0.00 | 0.00 | 0.00 | 55 | 1014.9 |
| 20260505163130 | 80 | 116 | 2.0 | 4.0 | 0.00 | 0.00 | 0.00 | 56 | 1015.0 |
| 20260505162630 | 80 | 321 | 2.0 | 9.0 | 0.00 | 0.00 | 0.00 | 55 | 1014.8 |
| 20260505162130 | 80 | 212 | 2.0 | 9.0 | 0.00 | 0.00 | 0.00 | 55 | 1014.6 |
| 20260505161629 | 80 | 122 | 2.0 | 7.0 | 0.00 | 0.00 | 0.00 | 56 | 1014.7 |
| 20260505161130 | 80 | 184 | 3.0 | 8.0 | 0.00 | 0.00 | 0.00 | 55 | 1014.8 |
| 20260505160629 | 80 | 77 | 3.0 | 8.0 | 0.00 | 0.00 | 0.00 | 54 | 1014.8 |
| 20260505160130 | 80 | 47 | 3.0 | 8.0 | 0.00 | 0.00 | 0.00 | 54 | 1014.8 |
| 20260505153129 | 79 | 224 | 3.0 | 7.0 | 0.00 | 0.00 | 0.00 | 55 | 1015.0 |
| 20260505152630 | 78 | 228 | 3.0 | 8.0 | 0.00 | 0.00 | 0.00 | 56 | 1015.0 |
| 20260505152129 | 78 | 207 | 2.0 | 8.0 | 0.00 | 0.00 | 0.00 | 56 | 1014.8 |
| 20260505151630 | 78 | 153 | 2.0 | 6.0 | 0.00 | 0.00 | 0.00 | 58 | 1014.8 |
| 20260505151401 | 78 | 212 | 2.0 | 11.0 | 0.00 | 0.00 | 0.00 | 57 | 1014.7 |
| 20260505150901 | 78 | 235 | 2.0 | 11.0 | 0.00 | 0.00 | 0.00 | 57 | 1014.7 |
| 20260505150130 | 78 | 198 | 2.0 | 7.0 | 0.00 | 0.00 | 0.00 | 56 | 1014.6 |
| 20260505140622 | 74 | 180 | 2.0 | 6.0 | 0.00 | 0.00 | 0.00 | 63 | 1014.7 |
| 20260505140122 | 74 | 210 | 1.0 | 6.0 | 0.00 | 0.00 | 0.00 | 64 | 1014.7 |
| 20260505130113 | 66 | 178 | 1.0 | 4.0 | 0.00 | 0.00 | 0.00 | 77 | 1014.5 |
| 20260505124612 | 64 | 186 | 1.0 | 2.0 | 0.00 | 0.00 | 0.00 | 82 | 1014.6 |
| 20260505124111 | 63 | 186 | 0.0 | 2.0 | 0.00 | 0.00 | 0.00 | 84 | 1014.7 |
| 20260505123611 | 62 | 186 | 0.0 | 1.0 | 0.00 | 0.00 | 0.00 | 86 | 1014.6 |
| 20260505123111 | 61 | 186 | 0.0 | 1.0 | 0.00 | 0.00 | 0.00 | 87 | 1014.6 |
| 20260505122609 | 60 | 186 | 0.0 | 1.0 | 0.00 | 0.00 | 0.00 | 89 | 1014.5 |
| 20260505122108 | 59 | 186 | 0.0 | 1.0 | 0.00 | 0.00 | 0.00 | 90 | 1014.3 |
| 20260505121605 | 58 | 186 | 0.0 | 1.0 | 0.00 | 0.00 | 0.00 | 92 | 1014.4 |
| 20260505121336 | 57 | 186 | 0.0 | 1.0 | 0.00 | 0.00 | 0.00 | 93 | 1014.3 |
| 20260505120606 | 56 | 207 | 0.0 | 1.0 | 0.00 | 0.00 | 0.00 | 94 | 1014.3 |
| 20260505120105 | 0 | 0.0 | 0.0 | 0.00 | 0.00 | 0.00 | 1014.2 | ||
| 20260505115512 | 0 | 0.0 | 0.0 | 0.00 | 0.00 | 0.00 | 1014.3 | ||
| 20260505114915 | 0 | 0.0 | 0.0 | 0.00 | 0.00 | 0.00 | 1014.2 | ||
| 20260505114415 | 0 | 0.0 | 0.0 | 0.00 | 0.00 | 0.00 | 1014.1 | ||
| 20260505113912 | 0 | 0.0 | 0.0 | 0.00 | 0.00 | 0.00 | 1014.0 | ||
| 20260505113542 | 0 | 0.0 | 0.0 | 0.00 | 0.00 | 0.00 | 1013.9 | ||
| 20260505113039 | 0 | 0.0 | 0.0 | 0.00 | 0.00 | 0.00 | 1013.9 | ||
| 20260505112214 | 0 | 0.0 | 0.0 | 0.00 | 0.00 | 0.00 | 1013.8 | ||
| 20260505111713 | 0 | 0.0 | 0.0 | 0.00 | 0.00 | 0.00 | 1013.7 | ||
| 20260505111214 | 0 | 0.0 | 0.0 | 0.00 | 0.00 | 0.00 | 1013.7 | ||
| 20260505110705 | 0 | 0.0 | 1.0 | 0.00 | 0.00 | 0.00 | 1013.7 | ||
| 20260505110114 | 0 | 202 | 0.0 | 1.0 | 0.00 | 0.00 | 0.00 | 1013.7 | |
| 20260505102035 | 53 | 207 | 0.0 | 0.0 | 0.00 | 0.00 | 0.00 | 94 | 1013.7 |
| 20260505101805 | 52 | 207 | 0.0 | 0.0 | 0.00 | 0.00 | 0.00 | 94 | 1013.7 |
| 20260505101307 | 52 | 207 | 0.0 | 0.0 | 0.00 | 0.00 | 0.00 | 94 | 1013.7 |
| 20260505100535 | 52 | 207 | 0.0 | 0.0 | 0.00 | 0.00 | 0.00 | 94 | 1013.7 |
| 20260505100036 | 52 | 207 | 0.0 | 0.0 | 0.00 | 0.00 | 0.00 | 94 | 1013.7 |
| 20260505095535 | 52 | 207 | 0.0 | 0.0 | 0.00 | 0.00 | 0.00 | 94 | 1013.7 |
| 20260505095036 | 52 | 207 | 0.0 | 0.0 | 0.00 | 0.00 | 0.00 | 94 | 1013.7 |
| 20260505094535 | 52 | 207 | 0.0 | 0.0 | 0.00 | 0.00 | 0.00 | 94 | 1013.6 |
| 20260505094036 | 52 | 207 | 0.0 | 0.0 | 0.00 | 0.00 | 0.00 | 94 | 1013.5 |
| 20260505093534 | 52 | 207 | 0.0 | 0.0 | 0.00 | 0.00 | 0.00 | 93 | 1013.6 |
| 20260505093035 | 52 | 207 | 0.0 | 0.0 | 0.00 | 0.00 | 0.00 | 93 | 1013.7 |
| 20260505092807 | 52 | 207 | 0.0 | 0.0 | 0.00 | 0.00 | 0.00 | 93 | 1013.8 |
| 20260505092033 | 52 | 207 | 0.0 | 0.0 | 0.00 | 0.00 | 0.00 | 93 | 1013.7 |
| 20260505091534 | 52 | 207 | 0.0 | 0.0 | 0.00 | 0.00 | 0.00 | 93 | 1013.5 |
| 20260505091033 | 52 | 207 | 0.0 | 0.0 | 0.00 | 0.00 | 0.00 | 93 | 1013.6 |
| 20260505090804 | 52 | 207 | 0.0 | 0.0 | 0.00 | 0.00 | 0.00 | 93 | 1013.6 |
| 20260505090034 | 52 | 207 | 0.0 | 0.0 | 0.00 | 0.00 | 0.00 | 93 | 1013.5 |
| 20260505085533 | 52 | 207 | 0.0 | 0.0 | 0.00 | 0.00 | 0.00 | 93 | 1013.5 |
| 20260505085304 | 52 | 207 | 0.0 | 0.0 | 0.00 | 0.00 | 0.00 | 93 | 1013.5 |
| 20260505084531 | 52 | 207 | 0.0 | 0.0 | 0.00 | 0.00 | 0.00 | 93 | 1013.5 |
| 20260505084032 | 52 | 207 | 0.0 | 0.0 | 0.00 | 0.00 | 0.00 | 93 | 1013.4 |
| 20260505083531 | 52 | 207 | 0.0 | 0.0 | 0.00 | 0.00 | 0.00 | 93 | 1013.3 |
| 20260505083301 | 52 | 207 | 0.0 | 0.0 | 0.00 | 0.00 | 0.00 | 93 | 1013.3 |
| 20260505082759 | 52 | 207 | 0.0 | 0.0 | 0.00 | 0.00 | 0.00 | 93 | 1013.3 |
| 20260505082029 | 52 | 207 | 0.0 | 0.0 | 0.00 | 0.00 | 0.00 | 93 | 1013.3 |
| 20260505081529 | 52 | 207 | 0.0 | 0.0 | 0.00 | 0.00 | 0.00 | 93 | 1013.3 |
| 20260505081029 | 52 | 207 | 0.0 | 0.0 | 0.00 | 0.00 | 0.00 | 93 | 1013.3 |
| 20260505080801 | 52 | 207 | 0.0 | 0.0 | 0.00 | 0.00 | 0.00 | 93 | 1013.4 |
| 20260505080030 | 52 | 207 | 0.0 | 0.0 | 0.00 | 0.00 | 0.00 | 93 | 1013.4 |
| 20260505075529 | 52 | 207 | 0.0 | 0.0 | 0.00 | 0.00 | 0.00 | 93 | 1013.5 |
| 20260505075029 | 52 | 207 | 0.0 | 0.0 | 0.00 | 0.00 | 0.00 | 93 | 1013.5 |
| 20260505074530 | 52 | 207 | 0.0 | 0.0 | 0.00 | 0.00 | 0.00 | 93 | 1013.5 |
| 20260505074029 | 53 | 207 | 0.0 | 0.0 | 0.00 | 0.00 | 0.00 | 93 | 1013.6 |
| 20260505073534 | 53 | 207 | 0.0 | 0.0 | 0.00 | 0.00 | 0.00 | 93 | 1013.7 |
| 20260505073530 | 52 | 207 | 0.0 | 0.0 | 0.00 | 0.00 | 0.00 | 93 | 1013.6 |
| 20260505072801 | 53 | 207 | 0.0 | 0.0 | 0.00 | 0.00 | 0.00 | 93 | 1013.6 |
| 20260505072029 | 53 | 207 | 0.0 | 0.0 | 0.00 | 0.00 | 0.00 | 93 | 1013.5 |
| 20260505071530 | 53 | 207 | 0.0 | 0.0 | 0.00 | 0.00 | 0.00 | 93 | 1013.6 |
| 20260505071029 | 53 | 207 | 0.0 | 0.0 | 0.00 | 0.00 | 0.00 | 92 | 1013.6 |
| 20260505070530 | 53 | 207 | 0.0 | 0.0 | 0.00 | 0.00 | 0.00 | 92 | 1013.6 |
| 20260505070259 | 53 | 207 | 0.0 | 0.0 | 0.00 | 0.00 | 0.00 | 92 | 1013.8 |
| 20260505065527 | 53 | 207 | 0.0 | 0.0 | 0.00 | 0.00 | 0.00 | 92 | 1013.9 |
| 20260505065028 | 53 | 207 | 0.0 | 0.0 | 0.00 | 0.00 | 0.00 | 92 | 1013.9 |
| 20260505064527 | 53 | 207 | 0.0 | 0.0 | 0.00 | 0.00 | 0.00 | 92 | 1013.9 |
| 20260505064027 | 53 | 207 | 0.0 | 0.0 | 0.00 | 0.00 | 0.00 | 92 | 1013.9 |
| 20260505063527 | 53 | 207 | 0.0 | 0.0 | 0.00 | 0.00 | 0.00 | 92 | 1014.0 |
| 20260505063025 | 53 | 207 | 0.0 | 0.0 | 0.00 | 0.00 | 0.00 | 92 | 1014.2 |
| 20260505062529 | 53 | 207 | 0.0 | 0.0 | 0.00 | 0.00 | 0.00 | 91 | 1014.3 |
| 20260505062525 | 53 | 207 | 0.0 | 0.0 | 0.00 | 0.00 | 0.00 | 91 | 1014.3 |
| 20260505061526 | 53 | 207 | 0.0 | 0.0 | 0.00 | 0.00 | 0.00 | 91 | 1014.3 |
| 20260505061255 | 54 | 207 | 0.0 | 0.0 | 0.00 | 0.00 | 0.00 | 91 | 1014.4 |
| 20260505060526 | 54 | 207 | 0.0 | 0.0 | 0.00 | 0.00 | 0.00 | 91 | 1014.4 |
| 20260505060025 | 54 | 207 | 0.0 | 0.0 | 0.00 | 0.00 | 0.00 | 91 | 1014.4 |
| 20260505055757 | 54 | 207 | 0.0 | 0.0 | 0.00 | 0.00 | 0.00 | 91 | 1014.4 |
| 20260505055025 | 54 | 207 | 0.0 | 0.0 | 0.00 | 0.00 | 0.00 | 91 | 1014.6 |
| 20260505054525 | 54 | 207 | 0.0 | 0.0 | 0.00 | 0.00 | 0.00 | 91 | 1014.6 |
| 20260505054023 | 54 | 207 | 0.0 | 0.0 | 0.00 | 0.00 | 0.00 | 91 | 1014.5 |
| 20260505053524 | 54 | 207 | 0.0 | 0.0 | 0.00 | 0.00 | 0.00 | 90 | 1014.6 |
| 20260505053254 | 54 | 207 | 0.0 | 0.0 | 0.00 | 0.00 | 0.00 | 90 | 1014.7 |
| 20260505052523 | 54 | 207 | 0.0 | 0.0 | 0.00 | 0.00 | 0.00 | 90 | 1014.8 |
| 20260505052254 | 54 | 207 | 0.0 | 0.0 | 0.00 | 0.00 | 0.00 | 90 | 1014.8 |
| 20260505051523 | 54 | 207 | 0.0 | 0.0 | 0.00 | 0.00 | 0.00 | 90 | 1014.8 |
| 20260505051253 | 55 | 207 | 0.0 | 0.0 | 0.00 | 0.00 | 0.00 | 90 | 1014.9 |
| 20260505050521 | 55 | 207 | 0.0 | 0.0 | 0.00 | 0.00 | 0.00 | 90 | 1014.9 |
| 20260505041514 | 55 | 207 | 0.0 | 0.0 | 0.00 | 0.00 | 0.00 | 90 | 1014.6 |
| 20260505041014 | 55 | 207 | 0.0 | 0.0 | 0.00 | 0.00 | 0.00 | 90 | 1014.8 |
| 20260505040513 | 55 | 207 | 0.0 | 0.0 | 0.00 | 0.00 | 0.00 | 90 | 1014.8 |
| 20260505040014 | 55 | 207 | 0.0 | 0.0 | 0.00 | 0.00 | 0.00 | 90 | 1014.8 |
| 20260505035514 | 55 | 207 | 0.0 | 0.0 | 0.00 | 0.00 | 0.00 | 90 | 1014.8 |
| 20260505035243 | 55 | 207 | 0.0 | 0.0 | 0.00 | 0.00 | 0.00 | 88 | 1014.9 |
| 20260505034512 | 55 | 207 | 0.0 | 0.0 | 0.00 | 0.00 | 0.00 | 89 | 1014.9 |
| 20260505034011 | 55 | 207 | 0.0 | 0.0 | 0.00 | 0.00 | 0.00 | 89 | 1014.9 |
| 20260505033511 | 56 | 207 | 0.0 | 0.0 | 0.00 | 0.00 | 0.00 | 89 | 1015.0 |
| 20260505033012 | 56 | 207 | 0.0 | 0.0 | 0.00 | 0.00 | 0.00 | 88 | 1015.1 |
| 20260505032743 | 56 | 207 | 0.0 | 0.0 | 0.00 | 0.00 | 0.00 | 89 | 1015.0 |
| 20260505032011 | 56 | 207 | 0.0 | 0.0 | 0.00 | 0.00 | 0.00 | 89 | 1015.1 |
| 20260505031510 | 56 | 207 | 0.0 | 0.0 | 0.00 | 0.00 | 0.00 | 89 | 1015.0 |
| 20260505031010 | 55 | 207 | 0.0 | 0.0 | 0.00 | 0.00 | 0.00 | 88 | 1015.2 |
| 20260505030507 | 55 | 207 | 0.0 | 0.0 | 0.00 | 0.00 | 0.00 | 87 | 1015.3 |
| 20260505030008 | 56 | 207 | 0.0 | 0.0 | 0.00 | 0.00 | 0.00 | 86 | 1015.3 |
| 20260505025508 | 56 | 207 | 0.0 | 0.0 | 0.00 | 0.00 | 0.00 | 86 | 1015.4 |
| 20260505025006 | 56 | 207 | 0.0 | 0.0 | 0.00 | 0.00 | 0.00 | 86 | 1015.2 |
| 20260505024506 | 57 | 207 | 0.0 | 0.0 | 0.00 | 0.00 | 0.00 | 86 | 1015.2 |
| 20260505024006 | 57 | 207 | 0.0 | 0.0 | 0.00 | 0.00 | 0.00 | 85 | 1015.1 |
| 20260505023503 | 57 | 207 | 0.0 | 0.0 | 0.00 | 0.00 | 0.00 | 85 | 1015.1 |
| 20260505023004 | 57 | 207 | 0.0 | 0.0 | 0.00 | 0.00 | 0.00 | 84 | 1015.1 |
| 20260505022504 | 57 | 207 | 0.0 | 0.0 | 0.00 | 0.00 | 0.00 | 83 | 1015.0 |
| 20260505022001 | 58 | 207 | 0.0 | 0.0 | 0.00 | 0.00 | 0.00 | 82 | 1015.1 |
| 20260505021732 | 58 | 207 | 0.0 | 0.0 | 0.00 | 0.00 | 0.00 | 81 | 1014.9 |
| 20260505021000 | 59 | 207 | 0.0 | 0.0 | 0.00 | 0.00 | 0.00 | 81 | 1014.9 |
| 20260505020500 | 59 | 207 | 0.0 | 0.0 | 0.00 | 0.00 | 0.00 | 81 | 1014.8 |
| 20260505020230 | 59 | 207 | 0.0 | 0.0 | 0.00 | 0.00 | 0.00 | 79 | 1014.8 |
| 20260505015729 | 60 | 207 | 0.0 | 0.0 | 0.00 | 0.00 | 0.00 | 78 | 1014.8 |
| 20260505014957 | 60 | 207 | 0.0 | 0.0 | 0.00 | 0.00 | 0.00 | 77 | 1014.9 |
| 20260505014455 | 60 | 207 | 0.0 | 0.0 | 0.00 | 0.00 | 0.00 | 76 | 1014.9 |
| 20260505013956 | 61 | 207 | 0.0 | 0.0 | 0.00 | 0.00 | 0.00 | 74 | 1014.9 |
| 20260505013726 | 62 | 207 | 0.0 | 0.0 | 0.00 | 0.00 | 0.00 | 72 | 1014.9 |
| 20260505012956 | 62 | 207 | 0.0 | 0.0 | 0.00 | 0.00 | 0.00 | 71 | 1014.8 |
| 20260505012456 | 63 | 207 | 0.0 | 0.0 | 0.00 | 0.00 | 0.00 | 68 | 1014.8 |
| 20260505011955 | 64 | 207 | 0.0 | 0.0 | 0.00 | 0.00 | 0.00 | 66 | 1014.8 |
| 20260505011456 | 65 | 207 | 0.0 | 0.0 | 0.00 | 0.00 | 0.00 | 65 | 1014.8 |
| 20260505010955 | 65 | 207 | 0.0 | 0.0 | 0.00 | 0.00 | 0.00 | 63 | 1014.8 |
| 20260505010455 | 66 | 207 | 0.0 | 0.0 | 0.00 | 0.00 | 0.00 | 61 | 1014.8 |
| 20260505005956 | 66 | 207 | 0.0 | 1.0 | 0.00 | 0.00 | 0.00 | 60 | 1014.9 |
| 20260505005455 | 67 | 207 | 0.0 | 1.0 | 0.00 | 0.00 | 0.00 | 59 | 1014.9 |
| 20260505005227 | 67 | 189 | 0.0 | 2.0 | 0.00 | 0.00 | 0.00 | 58 | 1015.1 |
| 20260505004726 | 67 | 211 | 0.0 | 2.0 | 0.00 | 0.00 | 0.00 | 57 | 1015.1 |
| 20260505004226 | 68 | 199 | 0.0 | 1.0 | 0.00 | 0.00 | 0.00 | 57 | 1015.0 |
| 20260505003456 | 68 | 224 | 0.0 | 0.0 | 0.00 | 0.00 | 0.00 | 56 | 1015.2 |
| 20260505002955 | 69 | 224 | 0.0 | 1.0 | 0.00 | 0.00 | 0.00 | 54 | 1015.3 |
| 20260505002459 | 70 | 233 | 1.0 | 3.0 | 0.00 | 0.00 | 0.00 | 52 | 1015.3 |
| 20260505002455 | 70 | 224 | 1.0 | 2.0 | 0.00 | 0.00 | 0.00 | 53 | 1015.2 |
| 20260505001456 | 70 | 266 | 1.0 | 4.0 | 0.00 | 0.00 | 0.00 | 52 | 1015.2 |
| 20260505000956 | 71 | 214 | 1.0 | 4.0 | 0.00 | 0.00 | 0.00 | 51 | 1015.0 |
| 20260505000453 | 71 | 216 | 1.0 | 5.0 | 0.00 | 0.00 | 0.00 | 51 | 1015.1 |
| 20260504235954 | 71 | 219 | 1.0 | 5.0 | 0.00 | 0.00 | 0.00 | 50 | 1015.2 |
| 20260504235724 | 72 | 214 | 1.0 | 6.0 | 0.00 | 0.00 | 0.00 | 49 | 1015.3 |
| 20260504234954 | 72 | 213 | 2.0 | 6.0 | 0.00 | 0.00 | 0.00 | 48 | 1015.3 |
| 20260504234454 | 73 | 212 | 2.0 | 6.0 | 0.00 | 0.00 | 0.00 | 47 | 1015.3 |
| 20260504233954 | 74 | 212 | 2.0 | 6.0 | 0.00 | 0.00 | 0.00 | 46 | 1015.2 |
| 20260504233454 | 74 | 148 | 2.0 | 5.0 | 0.00 | 0.00 | 0.00 | 46 | 1015.4 |
| 20260504232954 | 74 | 235 | 2.0 | 7.0 | 0.00 | 0.00 | 0.00 | 45 | 1015.4 |
| 20260504232454 | 75 | 188 | 2.0 | 7.0 | 0.00 | 0.00 | 0.00 | 43 | 1015.5 |
| 20260504231953 | 75 | 217 | 2.0 | 6.0 | 0.00 | 0.00 | 0.00 | 44 | 1015.4 |
| 20260504231724 | 75 | 210 | 2.0 | 7.0 | 0.00 | 0.00 | 0.00 | 44 | 1015.4 |
| 20260504230953 | 75 | 225 | 2.0 | 7.0 | 0.00 | 0.00 | 0.00 | 43 | 1015.3 |
| 20260504230454 | 75 | 229 | 3.0 | 7.0 | 0.00 | 0.00 | 0.00 | 44 | 1015.3 |
| 20260504230000 | 76 | 215 | 3.0 | 7.0 | 0.00 | 0.00 | 0.00 | 43 | 1015.3 |
| 20260504225954 | 75 | 224 | 3.0 | 7.0 | 0.00 | 0.00 | 0.00 | 43 | 1015.2 |
| 20260504225454 | 76 | 238 | 3.0 | 7.0 | 0.00 | 0.00 | 0.00 | 43 | 1015.2 |
| 20260504224724 | 76 | 232 | 3.0 | 7.0 | 0.00 | 0.00 | 0.00 | 42 | 1015.3 |
| 20260504223954 | 77 | 210 | 3.0 | 9.0 | 0.00 | 0.00 | 0.00 | 42 | 1015.4 |
| 20260504223724 | 77 | 231 | 3.0 | 9.0 | 0.00 | 0.00 | 0.00 | 42 | 1015.4 |
| 20260504223225 | 77 | 210 | 2.0 | 8.0 | 0.00 | 0.00 | 0.00 | 40 | 1015.3 |
| 20260504222454 | 77 | 234 | 2.0 | 9.0 | 0.00 | 0.00 | 0.00 | 41 | 1015.3 |
| 20260504221954 | 77 | 52 | 2.0 | 9.0 | 0.00 | 0.00 | 0.00 | 41 | 1015.3 |
| 20260504221724 | 77 | 194 | 2.0 | 8.0 | 0.00 | 0.00 | 0.00 | 41 | 1015.3 |
| 20260504220954 | 77 | 207 | 3.0 | 8.0 | 0.00 | 0.00 | 0.00 | 40 | 1015.3 |
| 20260504220453 | 78 | 258 | 3.0 | 7.0 | 0.00 | 0.00 | 0.00 | 40 | 1015.2 |
| 20260504215954 | 78 | 200 | 3.0 | 9.0 | 0.00 | 0.00 | 0.00 | 40 | 1015.2 |
| 20260504215453 | 78 | 224 | 2.0 | 9.0 | 0.00 | 0.00 | 0.00 | 38 | 1015.3 |
| 20260504214954 | 78 | 196 | 2.0 | 8.0 | 0.00 | 0.00 | 0.00 | 40 | 1015.4 |
| 20260504214724 | 78 | 196 | 3.0 | 8.0 | 0.00 | 0.00 | 0.00 | 42 | 1015.3 |
| 20260504213954 | 77 | 152 | 3.0 | 9.0 | 0.00 | 0.00 | 0.00 | 40 | 1015.3 |
| 20260504213458 | 77 | 172 | 3.0 | 12.0 | 0.00 | 0.00 | 0.00 | 43 | 1015.4 |
| 20260504213453 | 78 | 268 | 3.0 | 12.0 | 0.00 | 0.00 | 0.00 | 38 | 1015.4 |
| 20260504212454 | 77 | 252 | 4.0 | 10.0 | 0.00 | 0.00 | 0.00 | 41 | 1015.4 |
| 20260504211953 | 77 | 262 | 3.0 | 10.0 | 0.00 | 0.00 | 0.00 | 41 | 1015.3 |
| 20260504211454 | 77 | 207 | 3.0 | 11.0 | 0.00 | 0.00 | 0.00 | 39 | 1015.3 |
| 20260504210954 | 77 | 258 | 4.0 | 11.0 | 0.00 | 0.00 | 0.00 | 40 | 1015.5 |
| 20260504210454 | 77 | 267 | 4.0 | 11.0 | 0.00 | 0.00 | 0.00 | 40 | 1015.5 |
| 20260504205953 | 77 | 220 | 5.0 | 15.0 | 0.00 | 0.00 | 0.00 | 39 | 1015.6 |
| 20260504205453 | 77 | 203 | 5.0 | 15.0 | 0.00 | 0.00 | 0.00 | 40 | 1015.6 |
| 20260504204954 | 77 | 207 | 4.0 | 14.0 | 0.00 | 0.00 | 0.00 | 41 | 1015.7 |
| 20260504204724 | 77 | 234 | 5.0 | 14.0 | 0.00 | 0.00 | 0.00 | 42 | 1015.6 |
| 20260504203951 | 77 | 176 | 4.0 | 12.0 | 0.00 | 0.00 | 0.00 | 40 | 1015.6 |
| 20260504203451 | 77 | 219 | 4.0 | 12.0 | 0.00 | 0.00 | 0.00 | 39 | 1015.6 |
| 20260504202952 | 77 | 225 | 4.0 | 12.0 | 0.00 | 0.00 | 0.00 | 41 | 1015.5 |
| 20260504202451 | 78 | 226 | 4.0 | 12.0 | 0.00 | 0.00 | 0.00 | 39 | 1015.6 |
| 20260504201952 | 78 | 234 | 3.0 | 11.0 | 0.00 | 0.00 | 0.00 | 39 | 1015.7 |
| 20260504201451 | 78 | 229 | 3.0 | 8.0 | 0.00 | 0.00 | 0.00 | 40 | 1015.6 |
| 20260504200956 | 77 | 193 | 4.0 | 12.0 | 0.00 | 0.00 | 0.00 | 38 | 1015.8 |
| 20260504200952 | 78 | 155 | 4.0 | 11.0 | 0.00 | 0.00 | 0.00 | 40 | 1015.8 |
| 20260504200556 | 78 | 202 | 4.0 | 12.0 | 0.00 | 0.00 | 0.00 | 38 | 1015.7 |
| 20260504195451 | 78 | 195 | 3.0 | 8.0 | 0.00 | 0.00 | 0.00 | 38 | 1015.9 |
| 20260504194950 | 78 | 233 | 4.0 | 7.0 | 0.00 | 0.00 | 0.00 | 40 | 1015.8 |
| 20260504194448 | 78 | 220 | 3.0 | 9.0 | 0.00 | 0.00 | 0.00 | 38 | 1016.0 |
| 20260504193947 | 78 | 290 | 3.0 | 10.0 | 0.00 | 0.00 | 0.00 | 38 | 1016.1 |
| 20260504193446 | 78 | 216 | 3.0 | 10.0 | 0.00 | 0.00 | 0.00 | 41 | 1016.2 |
| 20260504192945 | 78 | 235 | 3.0 | 10.0 | 0.00 | 0.00 | 0.00 | 40 | 1016.2 |
| 20260504192717 | 78 | 177 | 3.0 | 11.0 | 0.00 | 0.00 | 0.00 | 38 | 1016.2 |
| 20260504191945 | 78 | 220 | 3.0 | 13.0 | 0.00 | 0.00 | 0.00 | 41 | 1016.3 |
| 20260504191446 | 78 | 213 | 4.0 | 13.0 | 0.00 | 0.00 | 0.00 | 39 | 1016.4 |
| 20260504190946 | 78 | 208 | 4.0 | 12.0 | 0.00 | 0.00 | 0.00 | 40 | 1016.5 |
| 20260504190446 | 78 | 204 | 4.0 | 12.0 | 0.00 | 0.00 | 0.00 | 39 | 1016.5 |
| 20260504185945 | 78 | 332 | 3.0 | 8.0 | 0.00 | 0.00 | 0.00 | 39 | 1016.6 |
| 20260504185446 | 78 | 202 | 2.0 | 7.0 | 0.00 | 0.00 | 0.00 | 38 | 1016.6 |
| 20260504184945 | 78 | 251 | 3.0 | 8.0 | 0.00 | 0.00 | 0.00 | 41 | 1016.8 |
| 20260504184444 | 78 | 222 | 3.0 | 8.0 | 0.00 | 0.00 | 0.00 | 40 | 1016.8 |
| 20260504183943 | 78 | 193 | 3.0 | 7.0 | 0.00 | 0.00 | 0.00 | 38 | 1016.8 |
| 20260504183444 | 78 | 293 | 3.0 | 10.0 | 0.00 | 0.00 | 0.00 | 38 | 1016.9 |
| 20260504182941 | 78 | 219 | 3.0 | 10.0 | 0.00 | 0.00 | 0.00 | 39 | 1016.8 |